Regional Weather Roundup
Issued by NWS Kansas City/Pleasant Hill, MO

Home | Current Version | Previous Version | Text Only | Print | Product List | Glossary On
Versions: 1 2 3 4 5 6 7 8 9 10 11 12 13 14 15 16 17 18 19 20 21 22 23 24 25 26 27 28
000
ASUS43 KEAX 260810
RWREAX

WEATHER ROUNDUP FOR EASTERN KANSAS AND NORTHWEST MISSOURI
NATIONAL WEATHER SERVICE KANSAS CITY/PLEASANT HILL MO
300 AM CDT TUE SEP 26 2017

KSZ040-057-103>105-MOZ028-029-037-043-260900-
...KANSAS CITY METROPOLITAN AREA...

CITY           SKY/WX    TMP DP  RH WIND       PRES   REMARKS
K.C. INTL      CLOUDY    67  64  90 NE5       29.94S
K.C. DOWNTOWN  CLOUDY    70  64  81 N5        29.92S
LEES SUMMIT    CLOUDY    67  64  90 NE3       29.94F
OLATHE - IXD   CLOUDY    67  64  90 CALM      29.94S
OLATHE - OJC   MOCLDY    66  64  93 CALM      29.94S
LAWRENCE       HVY RAIN  66  66 100 CALM      29.96R VSB 3/4

$$

MOZ001>008-011>017-020>025-030>033-038>040-044>046-053-054-260900-
...NORTHERN AND CENTRAL MISSOURI...

CITY           SKY/WX    TMP DP  RH WIND       PRES   REMARKS
ST. JOSEPH     CLOUDY    66  66 100 CALM      29.94R
MOSBY          CLOUDY    68  63  83 CALM      29.92F
WARRENSBURG    CLOUDY    66  63  88 CALM      29.93S
WHITEMAN AFB   PTCLDY    67  67 100 CALM      29.93R
CLINTON        CLOUDY    68  66  94 N3        29.94S
SEDALIA        CLOUDY    71  66  84 CALM      29.94S
WARSAW         NOT AVBL
CHILLICOTHE      N/A     69  67  93 N3        29.94S
KIRKSVILLE     CLOUDY    69  65  86 NW5       29.94R

$$

MOZ041-047>049-056>058-063>065-088>090-097-260900-
...EASTERN AND SOUTHERN MISSOURI...

CITY           SKY/WX    TMP DP  RH WIND       PRES   REMARKS
ST. LOUIS INTL MOCLDY    75  63  66 S5        29.95F
SPIRIT OF STL  CLEAR     67  65  93 CALM      29.94S
COLUMBIA       MOCLDY    71  64  78 S9        29.94S
JEFFERSON CITY PTCLDY    70  62  76 E3        29.93S
ROLLA          PTCLDY    68  62  81 S7        29.97S
OSAGE BEACH    CLEAR     69  63  81 S6        29.95
SPRINGFIELD    CLEAR     69  63  81 SE9       29.95S
BRANSON        CLEAR     68  63  83 CALM      29.97F
JOPLIN         CLOUDY    69  67  93 NW3       29.94R
WEST PLAINS    CLEAR     63  61  93 CALM      29.99S

$$

IAZ060-094-KSZ022-034>040-054-083-096-NEZ052-066-093-260900-
...KANSAS...SOUTHEAST NEBRASKA AND IOWA...

CITY           SKY/WX    TMP DP  RH WIND       PRES   REMARKS
TOPEKA         CLOUDY    66  66 100 W5        29.96R
MANHATTAN      LGT RAIN  63  62  97 N5        29.98S
EMPORIA        CLOUDY    65  64  97 NW3       29.97R
CHANUTE        CLOUDY    69  64  84 CALM      29.96R
WICHITA        LGT RAIN  63  62  97 NW14      29.99R
OMAHA          CLOUDY    59  55  87 NW13      29.97S
LINCOLN        CLOUDY    56  54  93 NW13      30.02S
FALLS CITY     LGT RAIN  66  65  96 W7        29.95F FOG
LAMONI         LGT RAIN  67  67 100 NE3       29.93F FOG
DES MOINES     LGT RAIN  67  66  97 E5        29.92F

$$





USA.gov is the U.S. government's official web portal to all federal, state and local government web resources and services.